PDT,Max TemperatureF,Mean TemperatureF,Min TemperatureF,Max Dew PointF,MeanDew PointF,Min DewpointF,Max Humidity, Mean Humidity, Min Humidity, Max Sea Level PressureIn, Mean Sea Level PressureIn, Min Sea Level PressureIn, Max VisibilityMiles, Mean VisibilityMiles, Min VisibilityMiles, Max Wind SpeedMPH, Mean Wind SpeedMPH, Max Gust SpeedMPH,PrecipitationIn, CloudCover, Events, WindDirDegrees
2013-8-1,68,62,57,52,50,50,82,71,52,30.10,30.05,29.99,10,10,10,20,9,25,0.00,0,,265
2013-8-2,73,64,55,55,51,48,82,73,44,30.01,29.97,29.92,10,10,10,16,4,22,0.00,1,,296
2013-8-3,71,64,57,55,52,50,88,77,53,30.00,29.97,29.92,10,10,9,13,5,,0.00,4,,299
2013-8-4,69,63,57,55,52,50,88,78,56,30.03,30.00,29.96,14,10,10,18,7,23,0.00,6,,296
2013-8-5,68,62,55,55,53,52,88,82,56,30.04,30.01,29.96,10,10,10,14,7,18,0.00,6,,303
2013-8-6,71,63,55,55,53,52,88,79,53,30.06,30.02,30.00,19,10,10,18,8,22,0.00,5,,284
2013-8-7,71,64,57,55,54,50,94,79,53,30.11,30.07,30.05,10,10,7,18,8,22,0.00,5,,283
2013-8-8,68,62,57,57,54,52,88,78,60,30.05,30.01,29.97,10,10,10,16,5,24,0.00,6,,284
2013-8-9,71,64,57,55,53,50,88,78,53,30.02,29.98,29.94,10,10,6,17,7,18,0.00,5,,271
2013-8-10,75,66,57,57,55,54,88,79,53,30.07,30.04,30.02,10,10,9,16,7,22,0.00,5,,287
2013-8-11,73,65,57,57,55,54,94,80,50,30.05,30.02,29.97,10,10,10,12,6,,0.00,4,,309
2013-8-12,80,68,57,59,53,48,94,74,32,30.01,29.99,29.95,10,10,9,13,5,,0.00,4,,298
2013-8-13,80,68,55,59,53,48,94,74,34,30.01,29.98,29.92,10,9,5,18,4,24,0.00,2,,295
2013-8-14,77,67,57,61,54,50,83,71,41,30.01,29.97,29.86,10,10,10,13,5,20,0.00,0,,281
2013-8-15,82,73,64,64,61,59,88,78,54,29.98,29.96,29.93,10,10,10,13,8,20,0.00,4,,279
2013-8-16,80,72,64,64,60,52,100,78,47,30.01,29.98,29.96,10,10,5,15,5,,0.00,3,,331
2013-8-17,77,68,60,59,55,52,82,71,50,30.01,29.96,29.90,10,10,10,13,3,17,0.00,2,,288
2013-8-18,82,71,60,64,60,57,94,77,45,29.90,29.86,29.77,10,9,6,20,3,,0.00,4,,259
2013-8-19,82,73,64,64,59,55,83,73,42,29.92,29.85,29.81,10,10,10,14,5,,0.00,1,Thunderstorm,339
2013-8-20,75,68,60,61,57,54,88,75,53,29.91,29.88,29.83,10,10,8,13,5,17,0.00,2,,319
2013-8-21,73,66,59,57,55,54,82,75,53,29.95,29.91,29.87,10,10,10,13,5,,0.00,4,,301
2013-8-22,73,66,59,57,54,54,82,75,50,29.99,29.94,29.90,10,10,10,18,5,23,0.00,4,,286
2013-8-23,69,64,59,57,54,52,88,77,56,29.96,29.91,29.85,10,10,10,15,6,21,0.00,5,,280
2013-8-24,75,66,57,61,55,54,88,77,53,29.92,29.89,29.87,10,10,10,13,4,,0.00,2,,264
2013-8-25,75,70,64,63,60,57,94,79,61,29.99,29.93,29.90,10,10,7,14,4,23,0.00,6,,281
2013-8-26,75,68,60,59,55,48,94,71,41,30.03,29.97,29.93,10,10,4,17,6,21,0.00,5,,295
2013-8-27,80,68,57,57,54,50,82,69,42,29.93,29.89,29.84,10,10,10,18,3,20,0.00,0,,282
2013-8-28,80,70,59,63,58,55,88,79,54,29.97,29.91,29.88,10,10,10,13,4,16,0.00,2,,307
2013-8-29,80,71,62,63,59,57,94,79,48,30.07,30.02,29.97,10,10,10,14,6,17,0.00,5,,313
2013-8-30,86,74,62,64,59,54,94,73,35,30.08,30.01,29.93,10,10,10,15,2,17,0.00,2,,292
2013-8-31,77,68,59,59,56,55,88,72,50,30.00,29.96,29.92,10,10,10,13,4,,0.00,1,,324